Weather WX

World > North America > United States > Mississippi

Center, Mississippi Regional Weather

Lat: 34.47N, Lon: 88.93W
Wx Zone: MSZ014
Feedback

Center, MS Regional Weather

Expires:201906181900;;690640
ASUS44 KJAN 181810
RWRMS 

MISSISSIPPI HOURLY WEATHER ROUNDUP
NATIONAL WEATHER SERVICE JACKSON MS
100 PM CDT TUE JUN 18 2019

NOTE: "FAIR: INDICATES FEW OR NO CLOUDS BELOW 12,000 FEET WITH NO
SIGNIFICANT WEATHER AND/OR OBSTRUCTIONS TO VISIBILITY.


MSZ003>006-009-014>017-022>024-029>033-037>039-181900-
NORTHEAST MISSISSIPPI
  
CITY           SKY/WX    TMP DP  RH WIND       PRES   REMARKS
ABERDEEN       FAIR      84  84 100 SE5       29.91F HX 104           
COLUMBUS AFB   RAIN      75  73  94 SW8       29.91F FOG              
6HR MIN TEMP:  72; 6HR MAX TEMP:  83; 6HR PCP:  0.17;                

CORINTH        MOCLDY    79  72  78 NW7       29.93F                  
GOLDN TRIANGLE LGT RAIN  75  72  90 S8        29.93F                  
STARKVILLE     MOCLDY    81  72  74 SW3       29.92F                  
TUPELO         FAIR      85  72  65 W5        29.90F HX  91           
6HR MIN TEMP:  73; 6HR MAX TEMP:  85; 6HR PCP:  0.03;                

$$


SKY/WX - Weather  TMP - Temperature  DP - Dew Point  RH - Relative Humidity
WIND - Wind Direction/Speed PRES - Barometric Pressure VSB - Visibility
WCI - Wind Chill Index E13G22 Wind - East Wind 13 mph/Gusts of 22 mph